Simultaneous Nadir Overpasses (SNOs) Predictions

Prediction of SNOs between TERRA and METOP-C Satellite Orbit:

Table of predicted SNOs for the next 14.0 days since TLE Epoch: 4/27/2024
Index Date (TERRA) Time (TERRA) Lat,Lon (TERRA) SZA (TERRA ) Date (METOP-C) Time (METOP-C) Lat,Lon (METOP-C) SZA (METOP-C ) Distance(km) Time Diff (sec)
1 04/28/2024 13:42:47 -78.69, 166.50 115.49 04/28/2024 13:42:46 -78.68, 166.43 115.50 1.75 1
2 05/01/2024 04:13:47 -78.52, -52.15 116.50 05/01/2024 04:13:09 -78.52, -52.13 116.50 0.58 38
3 05/01/2024 05:03:01 78.83, 117.11 63.87 05/01/2024 05:03:42 78.82, 117.05 63.87 1.47 41
4 05/03/2024 18:44:46 -78.33, 89.15 117.49 05/03/2024 18:43:32 -78.34, 89.25 117.49 2.33 74
5 05/03/2024 19:33:59 78.68,-101.45 62.92 05/03/2024 19:34:04 78.68,-101.40 62.93 1.21 5
6 05/06/2024 10:04:59 78.38, 39.29 61.83 05/06/2024 10:04:30 78.37, 39.16 61.81 3.14 29
7 05/06/2024 10:54:12 -78.75,-151.17 117.74 05/06/2024 10:55:01 -78.74,-151.27 117.74 2.51 49
8 05/09/2024 00:35:54 78.19,-179.35 60.90 05/09/2024 00:34:51 78.18,-179.41 60.88 1.65 63



Historial Predications of SNOs between TERRA and METOP-C
